Torna al catalogo

KUIPER-00103

AttivoComunicazioniLEO
NORAD 65141·PAYLOAD·🇺🇸 United States

Lanciato Aug 11, 2025 da Cape Canaveral Space Force Station

Loading…

Prossimi Passaggi (prossime 24 ore)

TLE

AggiornatoSource: CelesTrak SupGP

Epoca: Sep 14, 2026, 15:10 UTC

1 65141C 25171K   26257.63240741 -.00000343  00000+0 -44890-4 0  2579
2 65141  51.8989  55.0419 0000616 109.8062 176.9152 14.79930551    18

Traccia KUIPER-00103 in tempo reale con AllMySat

Download on the App Store